Weather History for Gunnison, CO

Change the Weather History Date:

Thursday, November 25, 2010

  Actual Average Record
Temperature  
Mean Temperature 4 °F -  
Max Temperature 19 °F 33 °F 51 °F (2012)
Min Temperature -11 °F 9 °F -11 °F (2010)
Degree Days  
Heating Degree Days 61    
Moisture  
Dew Point -9 °F    
Average Humidity 62    
Maximum Humidity 92    
Minimum Humidity 38    
Precipitation  
Precipitation 0.00 in - - ()
Sea Level Pressure  
Sea Level Pressure 30.05 in    
Wind  
Wind Speed 2 mph (North)    
Max Wind Speed 8 mph    
Max Gust Speed -    
Visibility 10 miles    
Events      
Averages and records for this station are not official NWS values.
T = Trace of Precipitation, MM = Missing Value Source: NWS Daily Summary

Daily Weather History Graph

Daily Weather History Graph

Search for Another Location

Airport:

Trip Planner

Search our weather history database for the weather conditions in past years. The results will help you decide how hot, cold, wet, or windy it might be!

Date:

Astronomy

Nov. 25, 2010 Rise Set
Actual Time 7:00 AM MST 4:48 PM MST
Civil Twilight 6:31 AM MST 5:17 PM MST
Nautical Twilight 5:58 AM MST 5:50 PM MST
Astronomical Twilight 5:27 AM MST 6:22 PM MST
Moon 8:49 PM MST (11/25) 10:32 AM MST (11/25)
Length of Visible Light 10h 46m
Length of Day
9h 48m
Waning Gibbous, 82% of the Moon is Illuminated
Nov 25
Waning Gibbous
Nov 28
Last Quarter
Dec 5
New
Dec 13
First Quarter
Dec 21
Full

Hourly Weather History & Observations

Time (MST) Temp. Windchill Dew Point Humidity Pressure Visibility Wind Dir Wind Speed Gust Speed Precip Events Conditions
12:15 AM -2.2 °F -10.4 °F -9.4 °F 71% 29.87 in 10.0 mi NNE 3.5 mph - N/A   Clear
12:35 AM -2.2 °F - -11.2 °F 66% 29.88 in 10.0 mi Calm Calm - N/A   Clear
1:15 AM -5.8 °F - -13.0 °F 71% 29.89 in 10.0 mi Calm Calm - N/A   Clear
1:35 AM -7.6 °F -16.5 °F -9.4 °F 92% 29.89 in 10.0 mi ESE 3.5 mph - N/A   Clear
1:55 AM -7.6 °F - -13.0 °F 77% 29.90 in 10.0 mi Calm Calm - N/A   Clear
2:15 AM -5.8 °F - -7.6 °F 92% 29.91 in 10.0 mi Calm Calm - N/A   Clear
2:35 AM -5.8 °F - -16.6 °F 60% 29.92 in 10.0 mi Calm Calm - N/A   Clear
2:55 AM -5.8 °F - -11.2 °F 77% 29.93 in 10.0 mi Calm Calm - N/A   Clear
3:15 AM -7.6 °F - -14.8 °F 71% 29.94 in 10.0 mi Calm Calm - N/A   Clear
3:35 AM -7.6 °F -18.8 °F -16.6 °F 65% 29.93 in 10.0 mi South 4.6 mph - N/A   Clear
3:55 AM -7.6 °F - -9.4 °F 92% 29.95 in 10.0 mi Calm Calm - N/A   Clear
4:15 AM -7.6 °F -18.8 °F -14.8 °F 71% 29.96 in 10.0 mi North 4.6 mph - N/A   Clear
4:35 AM -7.6 °F - -13.0 °F 77% 29.96 in 10.0 mi Calm Calm - N/A   Clear
4:55 AM -9.4 °F - -18.4 °F 65% 29.97 in 10.0 mi Calm Calm - N/A   Clear
5:15 AM -7.6 °F - -9.4 °F 92% 29.99 in 10.0 mi Calm Calm - N/A   Clear
5:35 AM -9.4 °F - -18.4 °F 65% 29.99 in 10.0 mi Calm Calm - N/A   Clear
5:55 AM -9.4 °F -22.7 °F -14.8 °F 77% 30.01 in 10.0 mi NE 5.8 mph - N/A   Clear
6:15 AM -9.4 °F -20.9 °F -16.6 °F 71% 30.01 in 10.0 mi ENE 4.6 mph - N/A   Clear
6:35 AM -9.4 °F -18.6 °F -14.8 °F 77% 30.02 in 10.0 mi NNE 3.5 mph - N/A   Clear
6:55 AM -9.4 °F -20.9 °F -16.6 °F 71% 30.04 in 10.0 mi NE 4.6 mph - N/A   Clear
7:15 AM -9.4 °F - -16.6 °F 71% 30.06 in 10.0 mi Calm Calm - N/A   Clear
7:35 AM -11.2 °F - -14.8 °F 84% 30.07 in 10.0 mi Calm Calm - N/A   Clear
7:55 AM -9.4 °F - -16.6 °F 71% 30.08 in 10.0 mi Calm Calm - N/A   Clear
8:15 AM -7.6 °F - -9.4 °F 92% 30.09 in 10.0 mi Calm Calm - N/A   Clear
8:35 AM -7.6 °F - -14.8 °F 71% 30.09 in 10.0 mi Calm Calm - N/A   Clear
9:15 AM -2.2 °F -10.4 °F -9.4 °F 71% 30.11 in 10.0 mi NE 3.5 mph - N/A   Clear
9:35 AM -0.4 °F - -9.4 °F 66% 30.12 in 10.0 mi Calm Calm - N/A   Clear
9:55 AM 1.4 °F - -9.4 °F 61% 30.12 in 10.0 mi Calm Calm - N/A   Clear
10:15 AM 3.2 °F - -7.6 °F 61% 30.12 in 10.0 mi Calm Calm - N/A   Clear
10:35 AM 5.0 °F - -9.4 °F 52% 30.12 in 10.0 mi Calm Calm - N/A   Clear
10:55 AM 5.0 °F - -7.6 °F 56% 30.12 in 10.0 mi Calm Calm - N/A   Clear
11:15 AM 6.8 °F - -7.6 °F 52% 30.12 in 10.0 mi Calm Calm - N/A   Clear
11:35 AM 8.6 °F - -7.6 °F 48% 30.12 in 10.0 mi Calm Calm - N/A   Clear
11:55 AM 10.4 °F 0.8 °F -7.6 °F 44% 30.11 in 10.0 mi West 5.8 mph - N/A   Clear
12:15 PM 10.4 °F 0.8 °F -7.6 °F 44% 30.11 in 10.0 mi SSW 5.8 mph - N/A   Clear
12:35 PM 12.2 °F 6.1 °F -7.6 °F 41% 30.10 in 10.0 mi SW 3.5 mph - N/A   Clear
12:55 PM 12.2 °F 4.3 °F -5.8 °F 45% 30.10 in 10.0 mi SW 4.6 mph - N/A   Clear
1:15 PM 14.0 °F 8.2 °F -5.8 °F 41% 30.09 in 10.0 mi South 3.5 mph - N/A   Clear
1:35 PM 15.8 °F 10.2 °F -5.8 °F 38% 30.08 in 10.0 mi WSW 3.5 mph - N/A   Clear
1:55 PM 17.6 °F - -2.2 °F 42% 30.08 in 10.0 mi Calm Calm - N/A   Clear
2:35 PM 17.6 °F - -2.2 °F 42% 30.09 in 10.0 mi Calm Calm - N/A   Clear
3:15 PM 19.4 °F - -2.2 °F 39% 30.10 in 10.0 mi Calm Calm - N/A   Clear
3:35 PM 19.4 °F - -2.2 °F 39% 30.09 in 10.0 mi Calm Calm - N/A   Clear
3:55 PM 19.4 °F - -2.2 °F 39% 30.10 in 10.0 mi Calm Calm - N/A   Clear
4:15 PM 19.4 °F 10.4 °F -2.2 °F 39% 30.11 in 10.0 mi North 6.9 mph - N/A   Clear
4:55 PM 15.8 °F 6.1 °F -4.0 °F 41% 30.11 in 10.0 mi NNW 6.9 mph - N/A   Clear
5:35 PM 10.4 °F -1.5 °F -2.2 °F 57% 30.14 in 10.0 mi NNW 8.1 mph - N/A   Clear
5:55 PM 10.4 °F 0.8 °F -2.2 °F 57% 30.14 in 10.0 mi North 5.8 mph - N/A   Clear
6:15 PM 8.6 °F 2.0 °F -4.0 °F 57% 30.16 in 10.0 mi NNW 3.5 mph - N/A   Clear
6:35 PM 8.6 °F - -2.2 °F 62% 30.18 in 10.0 mi Calm Calm - N/A   Clear
7:55 PM 6.8 °F -3.5 °F -5.8 °F 56% 30.21 in 10.0 mi North 5.8 mph - N/A   Clear